When you browse on this site, cookies collect data to enhance your experience and personalize the content and advertising you see.
Visit our Privacy Policy to learn more. By continuing to use the site, you agree to this use of cookies and data.
  • In Sweden
  • List of Countries
  • For 7 days
  • Water Temperature
  • Weather Map
  • Weather Widgets
  • user-avatar
    Login

    Hourly Weather Hitchin

    Today, 26 August, Monday

    Time Temperature Precipitation Wind Pressure Humidity
    00:00 +20°C° 0 mm 2 mps 756 mmHg 68%
    01:00 +20°C° 0 mm 2 mps 756 mmHg 69%
    02:00 +20°C° 0 mm 2 mps 756 mmHg 69%
    03:00 +20°C° 0 mm 1 mps 756 mmHg 70%
    04:00 +20°C° 0 mm 1 mps 756 mmHg 70%
    05:00 +20°C° 0 mm 1 mps 756 mmHg 71%
    06:00 +18°C° 0 mm 0 mps 756 mmHg 71%
    07:00 +20°C° 0 mm 0 mps 756 mmHg 64%
    08:00 +22°C° 0 mm 0 mps 756 mmHg 58%
    09:00 +24°C° 0 mm 0 mps 756 mmHg 51%
    10:00 +27°C° 0 mm 1 mps 756 mmHg 46%
    11:00 +29°C° 0 mm 2 mps 756 mmHg 41%
    12:00 +30°C° 0 mm 2 mps 756 mmHg 36%
    13:00 +31°C° 0 mm 2 mps 756 mmHg 35%
    14:00 +31°C° 0 mm 2 mps 755 mmHg 35%
    15:00 +31°C° 0 mm 3 mps 755 mmHg 35%
    16:00 +30°C° 0 mm 2 mps 755 mmHg 40%
    17:00 +29°C° 0 mm 2 mps 754 mmHg 45%
    18:00 +28°C° 0 mm 2 mps 754 mmHg 50%
    19:00 +26°C° 0 mm 2 mps 754 mmHg 54%
    20:00 +25°C° 0 mm 2 mps 755 mmHg 57%
    21:00 +23°C° 0 mm 1 mps 755 mmHg 60%
    22:00 +23°C° 0 mm 1 mps 755 mmHg 62%
    23:00 +22°C° 0 mm 1 mps 754 mmHg 65%

    Tomorrow, 27 August, Tuesday

    Time Temperature Precipitation Wind Pressure Humidity
    00:00 +21°C° 0 mm 1 mps 754 mmHg 67%
    01:00 +21°C° 0 mm 1 mps 754 mmHg 67%
    02:00 +21°C° 0 mm 1 mps 754 mmHg 68%
    03:00 +21°C° 0 mm 1 mps 753 mmHg 68%
    04:00 +21°C° 0 mm 1 mps 753 mmHg 69%
    05:00 +21°C° 0 mm 1 mps 753 mmHg 69%
    06:00 +21°C° 0 mm 1 mps 753 mmHg 69%
    07:00 +22°C° 0 mm 1 mps 753 mmHg 66%
    08:00 +23°C° 0 mm 2 mps 753 mmHg 64%
    09:00 +25°C° 0 mm 2 mps 754 mmHg 61%
    10:00 +26°C° 0 mm 2 mps 753 mmHg 56%
    11:00 +27°C° 0 mm 1 mps 753 mmHg 52%
    12:00 +27°C° 0 mm 0 mps 753 mmHg 48%
    13:00 +29°C° 0 mm 1 mps 753 mmHg 46%
    14:00 +30°C° 0 mm 2 mps 753 mmHg 45%
    15:00 +30°C° 0 mm 2 mps 752 mmHg 43%
    16:00 +29°C° 0 mm 2 mps 752 mmHg 51%
    17:00 +27°C° 0 mm 2 mps 752 mmHg 58%
    18:00 +26°C° 0 mm 2 mps 752 mmHg 65%
    19:00 +25°C° 0.2 mm 2 mps 752 mmHg 69%
    20:00 +23°C° 0.2 mm 2 mps 752 mmHg 73%
    21:00 +21°C° 0.2 mm 2 mps 752 mmHg 78%
    22:00 +21°C° 0 mm 2 mps 752 mmHg 77%
    23:00 +20°C° 0 mm 2 mps 752 mmHg 76%

    Day after tomorrow, 28 August, Wednesday

    Time Temperature Precipitation Wind Pressure Humidity
    00:00 +20°C° 0 mm 2 mps 752 mmHg 76%
    01:00 +19°C° 0 mm 2 mps 752 mmHg 74%
    02:00 +20°C° 0 mm 1 mps 752 mmHg 72%
    03:00 +20°C° 0 mm 1 mps 752 mmHg 71%
    04:00 +20°C° 0 mm 1 mps 752 mmHg 71%
    05:00 +19°C° 0 mm 2 mps 752 mmHg 71%
    06:00 +19°C° 0 mm 2 mps 752 mmHg 72%
    07:00 +19°C° 0 mm 2 mps 752 mmHg 69%
    08:00 +20°C° 0 mm 2 mps 752 mmHg 67%
    09:00 +21°C° 0 mm 2 mps 752 mmHg 64%
    10:00 +23°C° 0 mm 2 mps 752 mmHg 61%
    11:00 +24°C° 0 mm 3 mps 752 mmHg 57%
    12:00 +25°C° 0 mm 4 mps 752 mmHg 53%
    13:00 +25°C° 0 mm 4 mps 752 mmHg 53%
    14:00 +25°C° 0 mm 4 mps 752 mmHg 53%
    15:00 +25°C° 0 mm 4 mps 752 mmHg 53%
    16:00 +23°C° 0 mm 4 mps 752 mmHg 55%
    17:00 +22°C° 0 mm 4 mps 752 mmHg 58%
    18:00 +21°C° 0 mm 4 mps 752 mmHg 60%
    19:00 +21°C° 0 mm 4 mps 752 mmHg 62%
    20:00 +20°C° 0 mm 4 mps 752 mmHg 64%
    21:00 +19°C° 0 mm 4 mps 752 mmHg 66%
    22:00 +18°C° 0.1 mm 4 mps 752 mmHg 72%
    23:00 +18°C° 0.1 mm 4 mps 752 mmHg 78%

    29 August, Thursday

    Time Temperature Precipitation Wind Pressure Humidity
    00:00 +17°C° 0.1 mm 4 mps 753 mmHg 84%
    01:00 +15°C° 0 mm 4 mps 753 mmHg 84%
    02:00 +14°C° 0 mm 4 mps 753 mmHg 83%
    03:00 +14°C° 0 mm 4 mps 753 mmHg 83%
    04:00 +13°C° 0 mm 4 mps 754 mmHg 83%
    05:00 +12°C° 0 mm 3 mps 754 mmHg 83%
    06:00 +12°C° 0 mm 3 mps 754 mmHg 83%
    07:00 +13°C° 0 mm 3 mps 755 mmHg 75%
    08:00 +15°C° 0 mm 4 mps 755 mmHg 67%
    09:00 +17°C° 0 mm 4 mps 756 mmHg 59%
    10:00 +18°C° 0 mm 4 mps 756 mmHg 54%
    11:00 +20°C° 0 mm 4 mps 756 mmHg 49%
    12:00 +21°C° 0 mm 4 mps 757 mmHg 45%
    13:00 +21°C° 0 mm 4 mps 757 mmHg 46%
    14:00 +21°C° 0 mm 4 mps 757 mmHg 47%
    15:00 +21°C° 0 mm 5 mps 757 mmHg 48%
    16:00 +20°C° 0 mm 4 mps 757 mmHg 52%
    17:00 +19°C° 0 mm 4 mps 757 mmHg 55%
    18:00 +19°C° 0 mm 3 mps 757 mmHg 59%
    19:00 +17°C° 0 mm 3 mps 757 mmHg 62%
    20:00 +16°C° 0 mm 3 mps 757 mmHg 66%
    21:00 +14°C° 0 mm 3 mps 758 mmHg 70%
    22:00 +13°C° 0 mm 3 mps 758 mmHg 73%
    23:00 +13°C° 0 mm 3 mps 758 mmHg 77%

    30 August, Friday

    Time Temperature Precipitation Wind Pressure Humidity
    00:00 +12°C° 0 mm 3 mps 758 mmHg 80%
    01:00 +12°C° 0 mm 3 mps 757 mmHg 81%
    02:00 +12°C° 0 mm 3 mps 757 mmHg 82%
    03:00 +12°C° 0 mm 3 mps 757 mmHg 83%
    04:00 +12°C° 0 mm 3 mps 757 mmHg 84%
    05:00 +12°C° 0 mm 3 mps 757 mmHg 85%
    06:00 +12°C° 0 mm 3 mps 757 mmHg 86%
    07:00 +13°C° 0 mm 3 mps 758 mmHg 81%
    08:00 +16°C° 0 mm 3 mps 758 mmHg 76%
    09:00 +17°C° 0 mm 4 mps 758 mmHg 71%
    10:00 +18°C° 0 mm 4 mps 758 mmHg 66%
    11:00 +19°C° 0 mm 4 mps 757 mmHg 62%
    12:00 +21°C° 0 mm 4 mps 757 mmHg 58%
    13:00 +21°C° 0 mm 4 mps 757 mmHg 57%
    14:00 +21°C° 0 mm 4 mps 757 mmHg 56%
    15:00 +21°C° 0 mm 5 mps 756 mmHg 56%
    16:00 +21°C° 0 mm 4 mps 756 mmHg 60%
    17:00 +20°C° 0 mm 4 mps 756 mmHg 64%
    18:00 +19°C° 0 mm 4 mps 755 mmHg 68%
    19:00 +18°C° 0 mm 4 mps 755 mmHg 72%
    20:00 +17°C° 0 mm 4 mps 755 mmHg 76%
    21:00 +17°C° 0 mm 4 mps 755 mmHg 79%
    22:00 +15°C° 0 mm 4 mps 755 mmHg 82%
    23:00 +15°C° 0 mm 4 mps 754 mmHg 84%

    31 August, Saturday

    Time Temperature Precipitation Wind Pressure Humidity
    00:00 +14°C° 0 mm 4 mps 754 mmHg 87%
    01:00 +14°C° 0 mm 4 mps 753 mmHg 87%
    02:00 +14°C° 0 mm 5 mps 753 mmHg 87%
    03:00 +14°C° 0 mm 5 mps 752 mmHg 86%
    04:00 +14°C° 0 mm 5 mps 752 mmHg 85%
    05:00 +14°C° 0 mm 5 mps 752 mmHg 84%
    06:00 +14°C° 0 mm 6 mps 751 mmHg 82%
    07:00 +15°C° 0 mm 6 mps 751 mmHg 79%
    08:00 +16°C° 0 mm 7 mps 751 mmHg 76%
    09:00 +17°C° 0 mm 7 mps 751 mmHg 72%
    10:00 +17°C° 0.1 mm 7 mps 751 mmHg 72%
    11:00 +18°C° 0.1 mm 7 mps 751 mmHg 72%
    12:00 +18°C° 0.1 mm 7 mps 751 mmHg 72%
    13:00 +17°C° 0.1 mm 6 mps 751 mmHg 72%
    14:00 +17°C° 0.1 mm 6 mps 751 mmHg 73%
    15:00 +17°C° 0.1 mm 6 mps 751 mmHg 74%
    16:00 +17°C° 0 mm 5 mps 751 mmHg 70%
    17:00 +17°C° 0 mm 4 mps 751 mmHg 66%
    18:00 +17°C° 0 mm 4 mps 751 mmHg 62%
    19:00 +15°C° 0 mm 4 mps 751 mmHg 64%
    20:00 +14°C° 0 mm 4 mps 752 mmHg 65%
    21:00 +13°C° 0 mm 4 mps 752 mmHg 67%
    22:00 +13°C° 0 mm 4 mps 752 mmHg 70%
    23:00 +12°C° 0 mm 3 mps 752 mmHg 73%
    Show more